FW4844 Weather Reports


Display with metric or nautical units.
time (UTC)temp
F
wind
direction
speed
MPH
gust
MPH
rain 1hr
in
rain 24hr
in
rain mn
in
humidity
%
barometer
mb
20260507165510 47 236 7.0 20.0 0.00 0.34 0.00 53 1005.8
20260507165227 47 312 7.0 15.0 0.00 0.36 0.00 48 1005.8
20260507164505 47 278 8.0 20.0 0.00 0.37 0.00 51 1005.9
20260507164009 46 260 9.0 20.0 0.00 0.38 0.00 52 1006.0
20260507163505 46 279 9.0 18.0 0.00 0.40 0.00 55 1006.1
20260507163005 46 249 11.0 23.0 0.00 0.42 0.00 54 1006.2
20260507162503 46 238 12.0 23.0 0.00 0.42 0.00 52 1006.4
20260507162003 46 252 11.0 21.0 0.00 0.44 0.00 51 1006.4
20260507161002 46 252 11.0 21.0 0.00 0.46 0.00 51 1006.4
20260507160503 46 273 11.0 21.0 0.00 0.47 0.00 49 1006.4
20260507160003 46 240 10.0 21.0 0.00 0.48 0.00 54 1006.4
20260507155503 46 226 9.0 16.0 0.00 0.49 0.00 53 1006.5
20260507155002 45 231 9.0 17.0 0.00 0.50 0.00 56 1006.5
20260507154503 45 247 10.0 19.0 0.00 0.51 0.00 51 1006.6
20260507153959 45 225 10.0 21.0 0.00 0.51 0.00 55 1006.6
20260507153458 46 286 10.0 21.0 0.00 0.52 0.00 50 1006.7
20260507152959 46 241 10.0 20.0 0.00 0.54 0.00 49 1006.7
20260507152459 46 281 10.0 23.0 0.00 0.54 0.00 51 1006.8
20260507151958 47 297 11.0 23.0 0.00 0.56 0.00 52 1006.8
20260507151459 47 277 12.0 22.0 0.00 0.57 0.00 51 1006.7
20260507150958 47 273 11.0 25.0 0.00 0.58 0.00 51 1006.7
20260507150459 47 275 10.0 26.0 0.00 0.60 0.00 51 1006.7
20260507145958 47 247 10.0 26.0 0.00 0.61 0.00 50 1006.7
20260507145458 46 266 9.0 21.0 0.00 0.62 0.00 50 1006.7
20260507144959 47 255 9.0 19.0 0.00 0.63 0.00 54 1006.6
20260507144457 45 288 10.0 20.0 0.00 0.64 0.00 51 1006.7
20260507143956 46 208 8.0 20.0 0.00 0.65 0.00 55 1006.7
20260507143724 46 317 10.0 24.0 0.00 0.66 0.00 54 1006.7
20260507142957 45 231 10.0 24.0 0.00 0.67 0.00 57 1006.8
20260507142457 46 209 8.0 17.0 0.00 0.68 0.00 58 1006.7
20260507141957 45 301 8.0 18.0 0.00 0.70 0.00 58 1006.8
20260507141457 45 252 7.0 18.0 0.00 0.71 0.00 56 1006.8
20260507140958 45 259 6.0 15.0 0.00 0.73 0.00 57 1006.6
20260507140458 44 291 6.0 15.0 0.00 0.74 0.00 63 1006.7
20260507135958 44 329 7.0 18.0 0.00 0.75 0.00 59 1006.6
20260507135717 43 304 6.0 18.0 0.00 0.76 0.00 61 1006.7
20260507134956 43 246 7.0 18.0 0.00 0.77 0.00 61 1006.7
20260507134456 42 332 8.0 18.0 0.00 0.77 0.00 60 1006.7
20260507133956 42 329 9.0 19.0 0.00 0.78 0.00 66 1006.7
20260507133457 42 269 9.0 19.0 0.00 0.79 0.00 65 1006.7
20260507133221 41 342 9.0 20.0 0.00 0.80 0.00 65 1006.8
20260507131957 41 282 8.0 21.0 0.00 0.81 0.00 72 1006.8
20260507131457 41 273 6.0 20.0 0.00 0.82 0.00 70 1006.9
20260507130957 41 305 7.0 18.0 0.00 0.83 0.00 72 1006.8
20260507130456 40 290 6.0 15.0 0.00 0.84 0.00 74 1006.8
20260507125956 40 232 6.0 15.0 0.00 0.86 0.00 75 1006.8
20260507125456 39 315 6.0 12.0 0.00 0.88 0.00 75 1006.7
20260507125215 39 256 6.0 15.0 0.00 0.89 0.00 76 1006.8
20260507124457 38 279 7.0 15.0 0.00 0.90 0.00 74 1006.7
20260507124228 38 320 7.0 17.0 0.00 0.91 0.00 75 1006.6
20260507123446 38 337 7.0 17.0 0.00 0.92 0.00 75 1006.6
20260507122940 38 347 6.0 14.0 0.00 0.93 0.00 78 1006.8
20260507122705 37 233 8.0 19.0 0.00 0.94 0.00 80 1006.7
20260507121941 37 289 8.0 26.0 0.00 0.95 0.00 78 1006.7
20260507121441 37 294 7.0 26.0 0.00 0.96 0.00 80 1006.7
20260507120940 37 284 6.0 18.0 0.00 0.97 0.00 81 1006.7
20260507120438 36 260 7.0 16.0 0.00 0.98 0.00 82 1006.9
20260507115938 36 250 6.0 16.0 0.00 1.00 0.00 82 1006.7
20260507115438 36 277 5.0 17.0 0.00 1.02 0.00 83 1006.7
20260507114939 36 258 5.0 17.0 0.00 1.03 0.00 86 1006.6
20260507114438 36 260 4.0 15.0 0.00 1.04 0.00 87 1006.6
20260507113938 35 285 5.0 14.0 0.00 1.06 0.00 87 1006.6
20260507113658 35 311 5.0 14.0 0.00 1.06 0.00 87 1006.5
20260507112939 35 309 6.0 18.0 0.00 1.07 0.00 88 1006.5
20260507112154 34 273 6.0 16.0 0.00 1.08 0.00 88 1006.2
20260507111432 34 291 6.0 15.0 0.00 1.08 0.00 89 1006.2
20260507110932 34 242 6.0 15.0 0.00 1.09 0.00 89 1006.2
20260507110433 34 326 5.0 14.0 0.00 1.09 0.00 90 1006.1
20260507105932 34 232 6.0 14.0 0.00 1.09 0.00 90 1006.1
20260507105433 34 233 6.0 17.0 0.00 1.09 0.00 91 1006.1
20260507104933 34 275 6.0 17.0 0.00 1.10 0.00 91 1006.1
20260507104437 34 355 7.0 16.0 0.00 1.10 0.00 91 1006.1
20260507103932 34 293 7.0 16.0 0.00 1.11 0.00 92 1006.0
20260507103432 34 248 6.0 13.0 0.00 1.11 0.00 92 1005.9
20260507102932 34 264 6.0 13.0 0.00 1.12 0.00 92 1005.8
20260507102434 35 244 7.0 15.0 0.00 1.12 0.00 92 1005.9
20260507101933 35 275 7.0 15.0 0.00 1.13 0.00 93 1005.8
20260507101427 35 251 7.0 15.0 0.00 1.13 0.00 93 1005.7
20260507101140 35 254 7.0 14.0 0.00 1.13 0.00 94 1005.7
20260507100411 35 275 6.0 13.0 0.00 1.13 0.00 94 1005.5
20260507095905 35 242 5.0 13.0 0.00 1.13 0.00 94 1005.6
20260507095359 35 250 6.0 13.0 0.00 1.13 0.00 94 1005.6
20260507094849 35 256 7.0 15.0 0.00 1.13 0.00 93 1005.6
20260507094343 35 302 7.0 15.0 0.00 1.14 0.00 93 1005.6
20260507093837 35 263 8.0 17.0 0.00 1.14 0.00 93 1005.6
20260507093327 36 265 10.0 18.0 0.00 1.14 0.00 93 1005.6
20260507092821 36 219 8.0 18.0 0.00 1.14 0.00 93 1005.8
20260507092316 36 270 8.0 18.0 0.00 1.14 0.00 94 1005.7
20260507091805 36 247 8.0 18.0 0.00 1.14 0.00 93 1005.8
20260507091520 37 238 7.0 13.0 0.00 1.14 0.00 94 1005.8
20260507090753 37 251 6.0 12.0 0.00 1.14 0.00 94 1005.9
20260507090505 37 248 5.0 11.0 0.00 1.14 0.00 94 1005.8
20260507085738 37 268 5.0 12.0 0.00 1.14 0.00 94 1005.7
20260507085458 38 265 6.0 13.0 0.00 1.14 0.00 95 1005.6
20260507084721 38 246 4.0 13.0 0.00 1.14 0.00 95 1005.8
20260507084215 38 261 3.0 8.0 0.00 1.16 0.00 96 1005.8
20260507083709 38 283 3.0 8.0 0.00 1.16 0.00 96 1005.9
20260507083203 39 242 4.0 10.0 0.00 1.16 0.00 96 1005.9
20260507082657 39 248 4.0 10.0 0.00 1.16 0.00 96 1005.8
20260507082414 39 254 6.0 14.0 0.00 1.16 0.00 96 1005.7
20260507081641 39 259 7.0 14.0 0.00 1.16 0.00 96 1005.8
20260507081135 39 285 4.0 12.0 0.00 1.16 0.00 96 1006.0
20260507080858 39 294 3.0 6.0 0.00 1.16 0.00 96 1005.9
20260507080119 39 267 3.0 8.0 0.00 1.16 0.00 96 1005.8
20260507075613 39 292 3.0 8.0 0.00 1.16 0.00 96 1005.9
20260507075108 39 266 3.0 7.0 0.00 1.16 0.00 96 1005.9
20260507074555 39 284 3.0 7.0 0.00 1.16 0.00 96 1005.9
20260507074050 39 250 3.0 8.0 0.00 1.16 0.00 96 1005.8
20260507073543 39 261 3.0 8.0 0.00 1.16 0.00 96 1006.0
20260507073031 39 246 3.0 7.0 0.00 1.16 0.00 96 1005.9
20260507072525 39 265 2.0 6.0 0.00 1.16 0.00 96 1005.9
20260507072020 40 254 3.0 8.0 0.00 1.16 0.00 96 1005.9
20260507071510 40 296 3.0 8.0 0.00 1.16 0.00 96 1005.8
20260507071003 40 246 3.0 7.0 0.00 1.16 0.00 96 1005.9
20260507070722 40 302 3.0 9.0 0.00 1.16 0.00 96 1005.9
20260507065948 39 286 4.0 9.0 0.00 1.16 0.00 96 1006.0
20260507065709 40 279 3.0 7.0 0.00 1.16 0.00 96 1006.0
20260507064936 40 289 3.0 6.0 0.00 1.16 0.00 96 1006.0
20260507064426 40 269 3.0 8.0 0.00 1.16 0.00 96 1006.1
20260507064141 40 257 3.0 8.0 0.00 1.16 0.00 96 1006.0
20260507063422 40 262 3.0 7.0 0.00 1.16 0.00 96 1006.1
20260507062421 40 250 2.0 4.0 0.00 1.16 0.00 95 1006.0
20260507061922 40 243 2.0 4.0 0.00 1.16 0.00 95 1006.0
20260507061421 40 244 2.0 6.0 0.00 1.16 0.00 95 1005.9
20260507060927 40 263 2.0 6.0 0.00 1.16 0.00 95 1005.9
20260507060422 40 294 2.0 5.0 0.00 1.16 0.00 95 1005.9
20260507055922 40 317 3.0 8.0 0.00 1.16 0.00 95 1005.9
20260507055422 40 308 3.0 11.0 0.00 1.16 0.00 95 1006.0
20260507054923 40 287 4.0 11.0 0.00 1.16 0.00 95 1005.8
20260507054421 40 265 4.0 9.0 0.00 1.16 0.00 94 1005.9
20260507053921 40 308 3.0 9.0 0.00 1.17 0.00 94 1005.8
20260507053421 40 259 3.0 10.0 0.00 1.17 0.00 94 1005.9
20260507052910 40 270 4.0 10.0 0.00 1.17 0.00 95 1006.0
20260507052403 40 250 4.0 11.0 0.00 1.17 0.00 95 1006.0
20260507051858 40 277 4.0 9.0 0.00 1.17 0.00 95 1006.1
20260507051348 40 281 4.0 9.0 0.00 1.17 0.00 95 1006.1
20260507050846 40 284 4.0 11.0 0.00 1.17 0.00 95 1006.2
20260507050612 40 247 4.0 11.0 0.00 1.17 0.00 96 1006.1
20260507045845 40 355 4.0 9.0 0.00 1.18 0.00 96 1006.0
20260507045346 40 305 4.0 11.0 0.00 1.18 0.00 96 1006.0
20260507044847 40 267 3.0 11.0 0.00 1.18 0.00 96 1006.0
20260507044346 40 302 2.0 9.0 0.00 1.18 0.00 96 1006.0
20260507043844 40 329 3.0 9.0 0.00 1.18 0.00 96 1006.4
20260507043344 40 245 3.0 9.0 0.00 1.18 0.00 96 1006.6
20260507043107 40 307 4.0 9.0 0.00 1.18 0.00 96 1006.6
20260507042345 41 295 5.0 11.0 0.00 1.18 0.00 96 1006.6
20260507041843 40 259 4.0 11.0 0.00 1.19 0.00 96 1006.7
20260507041344 40 247 3.0 9.0 0.00 1.20 0.00 97 1006.7
20260507041111 40 257 3.0 9.0 0.00 1.20 0.00 97 1006.7
20260507040344 40 267 3.0 9.0 0.00 1.21 0.00 97 1006.4
20260507035844 40 266 4.0 9.0 0.00 1.21 1.21 97 1006.2
20260507035343 40 278 5.0 11.0 0.00 1.21 1.21 97 1006.1
20260507035108 40 297 5.0 11.0 0.01 1.21 1.21 96 1006.4
20260507034603 40 315 4.0 11.0 0.01 1.21 1.21 96 1006.6
20260507033843 41 0 4.0 11.0 0.01 1.21 1.21 97 1006.5
20260507033344 41 279 3.0 9.0 0.01 1.21 1.21 97 1006.5
20260507032843 41 287 3.0 8.0 0.01 1.21 1.21 97 1006.5
20260507032341 41 267 3.0 11.0 0.01 1.21 1.21 97 1006.4
20260507031842 41 261 3.0 11.0 0.01 1.21 1.21 97 1006.2
20260507031608 41 305 3.0 10.0 0.01 1.22 1.21 97 1006.2
20260507030841 41 286 3.0 11.0 0.01 1.22 1.21 97 1006.5
20260507030331 41 255 3.0 11.0 0.01 1.22 1.21 97 1006.5
20260507030056 41 277 3.0 8.0 0.01 1.22 1.21 97 1006.5
20260507025555 41 261 4.0 10.0 0.01 1.22 1.21 97 1006.6
20260507024830 41 265 5.0 16.0 0.00 1.21 1.20 97 1006.5
20260507024330 41 250 5.0 16.0 0.00 1.22 1.20 97 1006.5
20260507023830 41 274 5.0 11.0 0.00 1.22 1.20 97 1006.6
20260507023330 41 285 6.0 16.0 0.00 1.22 1.20 97 1006.8
20260507022830 41 295 5.0 16.0 0.00 1.22 1.20 97 1006.9
20260507022330 41 266 4.0 11.0 0.00 1.22 1.20 97 1006.7
20260507021830 41 264 2.0 7.0 0.00 1.22 1.20 97 1006.6
20260507021331 41 288 2.0 5.0 0.00 1.22 1.20 97 1006.5
20260507020831 41 284 2.0 4.0 0.00 1.23 1.20 97 1006.6
20260507020331 41 280 2.0 4.0 0.00 1.23 1.20 97 1006.5
20260507015828 42 279 2.0 4.0 0.00 1.23 1.20 97 1006.5
20260507015322 42 322 1.0 3.0 0.00 1.23 1.20 97 1006.7
20260507014823 42 321 2.0 5.0 0.00 1.23 1.20 97 1006.7
20260507014323 42 344 3.0 7.0 0.00 1.23 1.20 97 1006.8
20260507013825 42 291 3.0 8.0 0.00 1.23 1.20 97 1006.8
20260507013323 42 247 3.0 8.0 0.00 1.23 1.20 97 1006.7
20260507012822 42 319 3.0 11.0 0.00 1.23 1.20 97 1006.6
20260507012322 42 244 3.0 11.0 0.00 1.23 1.20 97 1006.5
20260507012044 42 262 3.0 7.0 0.01 1.23 1.20 97 1006.5
20260507011321 42 328 3.0 9.0 0.02 1.23 1.20 97 1006.4
20260507010822 42 248 3.0 9.0 0.03 1.23 1.20 97 1006.4
20260507010321 42 319 4.0 14.0 0.04 1.23 1.20 97 1006.4
20260507010041 42 255 4.0 14.0 0.04 1.23 1.20 97 1006.5
20260507005322 42 253 4.0 12.0 0.04 1.23 1.20 97 1006.2
20260507004822 42 299 4.0 9.0 0.05 1.23 1.20 98 1006.1
20260507004322 42 238 3.0 9.0 0.06 1.23 1.20 98 1006.0
20260507003822 42 290 2.0 7.0 0.06 1.23 1.20 98 1006.1
20260507003322 42 254 3.0 7.0 0.06 1.23 1.20 98 1006.0
20260507002821 42 247 3.0 8.0 0.06 1.23 1.20 98 1006.0
20260507002318 42 258 4.0 8.0 0.06 1.23 1.20 98 1006.0
20260507001818 42 317 4.0 8.0 0.05 1.23 1.19 98 1005.9
20260507001317 42 238 4.0 10.0 0.05 1.22 1.18 98 1005.9
20260507000817 42 247 4.0 10.0 0.04 1.21 1.17 98 1006.0
20260507000317 43 293 4.0 9.0 0.03 1.20 1.16 98 1005.9
20260506235818 43 257 3.0 9.0 0.03 1.20 1.16 98 1005.9
20260506235318 43 257 4.0 10.0 0.03 1.20 1.16 98 1005.7
20260506234818 43 237 4.0 10.0 0.02 1.19 1.15 98 1005.6
20260506234314 43 257 3.0 9.0 0.01 1.18 1.14 98 1005.6
20260506233813 42 271 1.0 5.0 0.01 1.18 1.14 98 1005.5
20260506233532 42 138 0.0 2.0 0.01 1.18 1.14 98 1005.3
20260506232812 42 138 0.0 2.0 0.02 1.18 1.14 98 1005.2
20260506232530 42 138 1.0 3.0 0.03 1.18 1.14 98 1005.1
20260506231810 42 138 0.0 3.0 0.04 1.18 1.14 98 1005.1
20260506231307 42 138 0.0 2.0 0.03 1.17 1.13 98 1005.0
20260506230806 42 138 1.0 3.0 0.03 1.17 1.13 98 1004.9
20260506230304 42 138 1.0 3.0 0.04 1.17 1.13 98 1004.8
20260506225801 42 138 1.0 4.0 0.04 1.17 1.13 98 1004.8
20260506225306 42 138 1.0 4.0 0.04 1.17 1.13 98 1004.8
20260506224258 42 125 0.0 2.0 0.04 1.17 1.13 98 1004.8
20260506223757 43 124 1.0 3.0 0.05 1.17 1.13 98 1004.7
20260506223513 43 123 1.0 3.0 0.06 1.17 1.13 98 1004.6
20260506222748 43 123 1.0 2.0 0.05 1.16 1.12 98 1004.6
20260506222245 43 123 1.0 3.0 0.04 1.15 1.11 98 1004.7
20260506222005 43 123 1.0 3.0 0.03 1.14 1.10 98 1004.7
20260506221502 43 121 1.0 3.0 0.03 1.14 1.10 98 1004.6
20260506220741 43 121 1.0 3.0 0.03 1.14 1.10 98 1004.5
20260506220508 43 121 1.0 3.0 0.02 1.13 1.09 98 1004.4
20260506215741 43 122 1.0 3.0 0.02 1.13 1.09 98 1004.7
20260506215241 43 122 1.0 3.0 0.02 1.13 1.09 98 1004.6
20260506214739 43 121 1.0 3.0 0.02 1.13 1.09 98 1004.6
20260506214239 43 121 1.0 3.0 0.03 1.13 1.09 98 1004.5
20260506213737 43 120 1.0 3.0 0.02 1.12 1.08 98 1004.4
20260506213237 43 120 0.0 2.0 0.01 1.11 1.07 98 1004.5
20260506212738 43 121 0.0 1.0 0.01 1.11 1.07 98 1004.5
20260506212237 43 120 0.0 1.0 0.01 1.11 1.07 98 1004.6
20260506211230 43 121 1.0 2.0 0.02 1.11 1.07 98 1004.1
20260506210724 43 121 1.0 2.0 0.02 1.11 1.07 98 1004.1
20260506210214 43 120 1.0 2.0 0.02 1.11 1.07 98 1004.1
20260506205707 43 119 1.0 2.0 0.03 1.11 1.07 98 1004.0
20260506205202 43 119 0.0 1.0 0.03 1.11 1.07 98 1004.0
20260506204653 43 119 1.0 2.0 0.04 1.11 1.07 98 1004.0
20260506204147 43 119 1.0 2.0 0.03 1.10 1.06 98 1003.9
20260506203641 43 119 0.0 2.0 0.03 1.11 1.06 98 1003.9
20260506203130 42 119 0.0 1.0 0.03 1.11 1.06 98 1003.9
20260506202624 42 119 0.0 1.0 0.04 1.12 1.06 98 1003.9
20260506202122 42 119 0.0 1.0 0.04 1.13 1.06 98 1004.0
20260506201623 42 119 0.0 2.0 0.03 1.12 1.06 98 1003.9
20260506201123 42 119 1.0 2.0 0.03 1.16 1.05 98 1004.0
20260506200622 42 119 0.0 1.0 0.04 1.20 1.05 98 1004.0
20260506200122 42 119 1.0 2.0 0.04 1.20 1.05 98 1004.0
20260506195621 42 119 1.0 3.0 0.03 1.19 1.04 98 1004.0
20260506194622 42 118 1.0 3.0 0.02 1.18 1.03 98 1004.2
20260506194124 42 118 1.0 3.0 0.03 1.18 1.03 98 1004.1
20260506193621 42 117 1.0 3.0 0.03 1.18 1.03 98 1004.1
20260506193121 42 117 1.0 3.0 0.02 1.17 1.02 98 1004.1
20260506192621 42 117 1.0 6.0 0.03 1.17 1.02 98 1004.1
20260506192121 42 118 1.0 6.0 0.04 1.17 1.02 98 1004.1
20260506191622 42 126 2.0 6.0 0.05 1.17 1.02 98 1004.0
20260506191121 42 98 2.0 7.0 0.05 1.17 1.02 98 1004.0
20260506190621 42 189 2.0 7.0 0.05 1.16 1.01 98 1004.0
20260506190342 42 124 2.0 4.0 0.06 1.16 1.01 98 1004.0
20260506185621 42 144 2.0 5.0 0.06 1.16 1.01 98 1004.1
20260506185122 42 146 2.0 5.0 0.07 1.16 1.01 98 1004.0
20260506184620 42 128 1.0 6.0 0.07 1.16 1.01 98 1004.1
20260506184346 42 124 1.0 6.0 0.06 1.15 1.00 98 1004.1
20260506183616 42 123 2.0 6.0 0.06 1.17 1.00 98 1004.1
20260506183338 42 119 2.0 6.0 0.07 1.17 1.00 98 1004.0
20260506182615 42 128 2.0 7.0 0.06 1.16 0.99 98 1004.1
20260506182115 42 130 2.0 7.0 0.06 1.15 0.98 98 1004.2
20260506181615 42 131 2.0 4.0 0.05 1.14 0.98 98 1004.4
20260506181336 41 107 2.0 4.0 0.06 1.14 0.97 98 1004.6
20260506180620 42 103 1.0 3.0 0.06 1.13 0.96 98 1004.6
20260506180113 42 84 1.0 3.0 0.06 1.12 0.95 98 1004.5
20260506175613 42 84 0.0 2.0 0.08 1.12 0.95 98 1004.4
20260506175111 42 83 0.0 2.0 0.08 1.11 0.94 98 1004.5
20260506174611 42 83 1.0 3.0 0.10 1.11 0.94 98 1004.5
20260506174109 42 83 1.0 3.0 0.11 1.11 0.94 98 1004.5
20260506173607 42 84 1.0 3.0 0.12 1.11 0.94 98 1004.5
20260506173330 42 84 1.0 3.0 0.13 1.10 0.93 98 1004.5
20260506172827 42 82 1.0 3.0 0.14 1.10 0.93 98 1004.5
20260506172327 42 82 1.0 4.0 0.14 1.09 0.92 98 1004.6
20260506171605 42 82 1.0 4.0 0.16 1.09 0.92 97 1004.7
20260506171105 42 55 1.0 3.0 0.16 1.08 0.91 97 1004.7
20260506170605 42 54 0.0 2.0 0.16 1.07 0.90 97 1004.8
20260506170327 42 54 1.0 3.0 0.16 1.06 0.89 98 1004.8